Regional Weather Roundup
Issued by NWS

Home | Current Version | Previous Version | Text Only | Print | Product List | Glossary On
Versions: 1 2 3 4 5 6 7 8 9 10 11 12 13 14 15 16 17 18 19 20 21 22 23 24 25 26 27 28 29 30 31 32 33 34 35 36 37 38 39 40 41 42 43 44 45 46 47 48 49 50
000
ASUS43 KMKX 101859
RWRWI

WISCONSIN REGIONAL WEATHER ROUNDUP
NATIONAL WEATHER SERVICE MILWAUKEE/SULLIVAN WI
100 PM CST SUN DEC 10 2017

NOTE: "FAIR" INDICATES FEW OR NO CLOUDS BELOW 12,000 FEET WITH NO
SIGNIFICANT WEATHER AND/OR OBSTRUCTIONS TO VISIBILITY.

WIZ001-002-006>008-014>016-023>028-102000-
NORTHWEST WISCONSIN

CITY           SKY/WX    TMP DP  RH WIND       PRES   REMARKS
SUPERIOR ARPT  CLOUDY    24  15  68 NW5       30.00S WCI  18
ASHLAND        CLOUDY    20  14  77 NW6       29.98S WCI  12
HAYWARD        CLOUDY    22  14  71 N8        29.95F WCI  12
SIREN          MOSUNNY   25  16  67 N5        29.98S WCI  20
CUMBERLAND     CLOUDY    25  18  74 NW8       29.95S WCI  16
RICE LAKE      CLOUDY    26  18  72 CALM      29.98S
CHETEK         CLOUDY    24  18  75 N3        29.96F
LADYSMITH      CLOUDY    24  18  78 NW8       29.95F WCI  15
EAU CLAIRE     NOT AVBL
MENOMONIE      CLOUDY    28  19  70 NW7       29.99R WCI  20
NEW RICHMOND   CLOUDY    28  19  70 NW12      30.00R WCI  17
OSCEOLA        CLOUDY    28  20  71 N9        30.03R WCI  19
$$

WIZ003>005-009-010-017-018-102000-
NORTH CENTRAL WISCONSIN

CITY           SKY/WX    TMP DP  RH WIND       PRES   REMARKS
MANITOWISH WTR CLOUDY    19  18  96 N8        29.88R WCI   8
ARBOR VITAE    CLOUDY    22  19  91 N13       29.87R WCI  10
WOODRUFF       CLOUDY    22  19  91 N13       29.87R WCI  10
RHINELANDER    FLURRIES  21  18  88 N6        29.87R WCI  13
EAGLE RIVER    CLOUDY    19  14  79 NW9       29.86R WCI   8
LAND O LAKES   FLURRIES  19  15  86 N12G20    29.87S WCI   6
PHILLIPS       CLOUDY    20  18  93 NW6       29.90S WCI  12
TOMAHAWK       CLOUDY    21  17  83 NW9       29.90R WCI  11
MEDFORD        CLOUDY    22  17  81 N10       29.90R WCI  11
MERRILL        CLOUDY    23  18  82 NW5       29.90R WCI  17
$$

WIZ029-030-035-036-043>047-102000-
CENTRAL WISCONSIN

CITY           SKY/WX    TMP DP  RH WIND       PRES   REMARKS
WAUSAU         CLOUDY    23  18  81 NW8       29.89S WCI  14
MOSINEE        CLOUDY    23  19  86 NW10G16   29.91R WCI  12
MARSHFIELD     CLOUDY    24  19  81 NW12      29.91R WCI  13
STEVENS POINT  CLOUDY    23  17  80 NW9       29.91S WCI  13
WAUPACA        CLOUDY    27  20  72 NW9       29.92R WCI  18
WAUTOMA        CLOUDY    26  19  74 NW10      29.93R WCI  16
WISC RAPIDS    CLOUDY    25  19  78 N8        29.93R WCI  16
CAMP DOUGLAS   NOT AVBL
$$

WIZ011>013-019>022-031-037>040-048>050-102000-
NORTHEAST WISCONSIN

CITY           SKY/WX    TMP DP  RH WIND       PRES   REMARKS
ANTIGO         CLOUDY    21  17  84 N12       29.86S WCI   9
SHAWANO        CLOUDY    27  20  73 NW7       29.90R WCI  20
OCONTO         CLOUDY    26  17  69 NW7       29.89S WCI  18
STURGEON BAY   CLOUDY    25  18  74 NW15      29.87S WCI  13
GREEN BAY      CLOUDY    25  20  81 NW8       29.90R WCI  16
MANITOWOC      FLURRIES  24  18  77 NW14      29.89R WCI  12
APPLETON       CLOUDY    25  16  68 NW10      29.88R WCI  15
CLINTONVILLE   NOT AVBL
OSHKOSH        CLOUDY    26  18  71 NW13      29.90R WCI  15
$$

WIZ032>034-041-042-053>061-102000-
SOUTHWEST WISCONSIN

CITY           SKY/WX    TMP DP  RH WIND       PRES   REMARKS
LA CROSSE      CLOUDY    29  21  72 NW10      29.98S WCI  20
SPARTA         CLOUDY    27  20  77 W5        29.96S WCI  21
VIROQUA        CLOUDY    27  23  84 NW7       29.93F WCI  20
BOSCOBEL       CLOUDY    31  21  66 N8        29.97R WCI  23
PRAIRIE DU CHI CLOUDY    30  20  66 NW7       29.98R WCI  24
PLATTEVILLE    CLOUDY    30  24  78 W10       29.94R WCI  21
$$

WIZ056-057-062-063-064-067-068-102000-
SOUTH CENTRAL WISCONSIN

CITY           SKY/WX    TMP DP  RH WIND       PRES   REMARKS
REEDSBURG      CLOUDY    29  20  69 NW8       29.93R WCI  21
BARABOO/DELLS  CLOUDY    28  19  68 NW9       29.92R WCI  20
LONE ROCK      CLOUDY    30  22  72 NW12      29.95R WCI  20
MINERAL POINT  CLOUDY    32  27  80 NW10      29.91S WCI  24
MADISON        CLOUDY    29  20  69 NW9       29.91R WCI  20
MIDDLETON      CLOUDY    31  22  68 NW13      29.91R WCI  21
WATERTOWN      CLOUDY    27  21  80 NW12      29.89R WCI  16
MONROE         CLOUDY    30  21  69 W7        29.89S WCI  23
JANESVILLE     CLOUDY    30  21  69 NW8       29.89R WCI  23
$$

WIZ051-052-058>065-066-070>072-102000-
SOUTHEAST WISCONSIN

CITY           SKY/WX    TMP DP  RH WIND       PRES   REMARKS
MILWAUKEE      CLOUDY    28  20  71 NW10      29.88R WCI  19
WAUKESHA       CLOUDY    25  18  74 NW12      29.89R WCI  14
MILWAUKEE/TIMM CLOUDY    27  18  69 NW10      29.89R WCI  17
RACINE         CLOUDY    28  19  69 NW8       29.89S WCI  20
BURLINGTON     CLOUDY    36  32  86 NW10      29.88S WCI  28
KENOSHA        CLOUDY    29  19  66 NW10      29.88S WCI  20
FOND DU LAC    CLOUDY    26  17  68 N13       29.90R WCI  15
SHEBOYGAN      CLOUDY    25  18  74 NW14      29.89R WCI  13
WEST BEND      CLOUDY    27  21  80 NW14      29.88R WCI  15
JUNEAU         CLOUDY    25  19  77 NW9G16    29.90R WCI  15
$$

LSZ147-162-102000-
LAKE SUPERIOR

STATION/POSITION TIME  TEMP    WIND        PRES    WAVE
                       AIR SEA DIR/SP/G            HT/PER
                 (UTC) (F)     (DEG/KT/KT) (MB)    (FT/S)
DEVILS ISLAND    1800   19     340/ 11/ 14 1016.4F
SAXON HARBOR     1840   23                 1014.6S
$$

LMZ867-665-643>646-102000-
LAKE MICHIGAN

STATION/POSITION TIME  TEMP    WIND        PRES    WAVE
                       AIR SEA DIR/SP/G            HT/PER
                 (UTC) (F)     (DEG/KT/KT) (MB)    (FT/S)
NORTHPORT PIER   1840   27     330/ 16/ 21 1011.2R
KEWAUNEE LAKESHO 1830   23     320/  9/ 13 1011.1R
SHEBOYGAN LAKESH 1800   25     310/ 14/ 15 1012.4S
PORT WASHINGTON  1840   27     310/  6/ 14 1013.2R
MILWAUKEE LAKESH 1820   27     300/ 10/ 13   N/A
KENOSHA   LAKESH 1800   27     290/ 12/ 16 1011.9
$$

TC  - TEMPERATURE IN CELSIUS
VSB - VISIBILITY IN STATUTE MILES
WCI - WIND CHILL INDEX
HX  - HEAT INDEX





USA.gov is the U.S. government's official web portal to all federal, state and local government web resources and services.